Погода Камень-на-Оби

Погода Камень-на-Оби : погода сейчас, прогноз погоды и архив. Всё, что Вы хотите узнать о погоде Камень-на-Оби!

Хотите узнать прогноз погоды Камень-на-Оби? Тогда Вам сюда: Погода Камень-на-Оби

Поиск расширенной информации на нашем сайте:

Другие новости

Новости СМИ2

Главная страница сайта

Новости сайта

03.07.2017

Напоминаем, что на нашем специализированном сайте Метеоцентр.Азия вы можете получить высокодетализированные автоматические прогнозы погоды по пунктам России, СНГ и мира в авиационном формате (включающие направление и скорость ветра, видимость, явления погоды, количество и форму облачности, нижнюю и верхнюю границу облачности).


Погода Камень-на-Оби - сегодня

Время (UTC), дата Ветер
(°,м/с) 
Видим.   Явления Облачность Т
(°С)
Тd
(°С)
f(%) Тe
(°С)
Pmin
(гПа)
dP
(гПа)
Po
(мм)
O2
(г/м3)
Тmin Tmax R s Состояние
почвы
03 21.09.17 270 (З) 10 км    3/3 600 м верхняя 
[Cu hum|Ci fib]
+12.2 +9.4 83 +13  1006.8  -0.9  743  285           
06 21.09.17 280 (З) 7-11{11}  10 км    8/8 600 м 
[Cu med, cong]
+17.4 +9.1 58 +17  1006.3  -0.1  743  280           
09 21.09.17 300 (СЗ) 6-10{12}  10 км    10/10 600 м кучево-дожд. 
[Cb cap]
+16 +7.3 56 +16  1006.2  -0.3  743  282           
12 21.09.17 290 (З) 7-11{12}  10 км    10/10 600 м кучево-дожд. 
[Cb cap]
+13.2 +6.8 65 +12  1007.6  1.3  744  285    +17.5       
15 21.09.17 310 (СЗ) 5{11}  10 км  {ливн. осадки}  10/10 600 м 
[Sc]
+9.4 +6.3 81 +8  1009.1  1.2  745  289           
18 21.09.17 320 (СЗ) 10 км  {ливн. осадки}  10/8 600 м средняя 
[Sc|Ac trans]
+8.2 +5.2 81 +7  1009.9  0.8  746  291           
21 21.09.17 310 (СЗ) 10 км    10/10 600 м 
[Sc]
+7.4 +5.2 86 +7  1011  746  292           
00 22.09.17 310 (СЗ) 10 км  слаб. ливневой дождь  10/10 600 м кучево-дожд. 
[Cb cap]
+6.7 +5.3 91 +6  1012.1  1.1  747  293  +6.7    0.4    влажная 
03 22.09.17 320 (СЗ) 10 км  {ливн. осадки}  10/10 600 м кучево-дожд. 
[Cb cap]
+7.9 +5.3 84 +7  1013.4  1.3  748  292           
06 22.09.17 320 (СЗ) 10 км  {ливн. осадки}  10/10 600 м кучево-дожд. 
[Cb cap]
+8.2 +5.5 83 +7  1014  0.6  749  292           
09 22.09.17 300 (СЗ) 7-12{12}  10 км  {ливн. осадки}  10/10 600 м кучево-дожд. 
[Cb cap]
+6.5 +2.7 77 +4  1014.7  0.6  749  294           
12 22.09.17 300 (СЗ) 2{12}  10 км  {ливн. осадки}  10/10 600 м кучево-дожд. 
[Cb cap]
+7.4 +4 79 +7  1015.3  0.6  750  293    +9.4     
15 22.09.17 290 (З) 10 км    10/10 600 м кучево-дожд. 
[Cb cap]
+5.5 +2.7 82 +6  1015.6  0.2  750  296           
18 22.09.17 270 (З) 10 км  слаб. ливневой дождь  10/0 кучево-дожд. 
[Cb cap]
+4.4 +2.8 89 +5  1015.1  -0.5  749  297           
21 22.09.17 290 (З) 10 км  слаб. ливневой дождь  10/10 600 м кучево-дожд. 
[Cb cap]
+4 +2.4 89 +4  1014.1  -1.1  749  297           
00 23.09.17 310 (СЗ) 10 км  {ливн. осадки}  10/10 600 м кучево-дожд. 
[Cb cap]
+3.1 +1.7 91 +2  1014.2  0.1  749  298  +2.9      влажная 
03 23.09.17 340 (С) 10 км    10/10 600 м 
[Sc]
+2.4 -0.3 82 1014.7  0.4  749  299  +2.1         
06 23.09.17 350 (С) 10 км    10/10 600 м 
[Sc]
+3.3 +1.5 88 +2  1014.5  749  298           
09 23.09.17 360 (С) 6-10{10}  10 км    10/10 600 м кучево-дожд. 
[Cb cap]
+3.4 -1.6 70 +1  1015.5  0.9  750  298           
12 23.09.17 320 (СЗ) 4{10}  10 км    10/10 600 м 
[Sc]
+2.7 -3.7 63 +1  1017.8  2.2  751  300    +7.4       
15 23.09.17 310 (СЗ) 10 км    10/10 600 м 
[Sc]
+0.6 -2.5 80 -2  1019.4  1.5  752  303           
18 23.09.17 250 (З) 10 км    10/0 средняя 
[Ac und]
-0.7 -2.1 90 -2  1020.7  1.1  753  304           
21 23.09.17 280 (З) 10 км    10/10 600 м 
[Sc]
+0.3 -1.2 90 -1  1021.8  1.2  754  304           
00 24.09.17 280 (З) 10 км    10/10 600 м 
[Sc]
+0.6 -1 89 -1  1023.8  756  304  -2.6        влажная 
03 24.09.17 330 (СЗ) 10 км  {ливн. осадки}  10/10 600 м 
[Sc]
+1.9 -1.5 78 1026.1  2.3  757  303           
Время (UTC), дата Ветер
(°,м/с) 
Видим.   Явления Облачность Т
(°С)
Тd
(°С)
f(%) Тe
(°С)
Pmin
(гПа)
dP
(гПа)
Po
(мм)
O2
(г/м3)
Тmin Tmax R s Состояние
почвы

Для получения пояснительной информации подведите курсор к названию столбца.

ПОГОДА Камень-на-Оби - архив

Всё, что Вы хотите узнать о погоде Камень-на-Оби - удобно и подробно!

Выберите нужную дату (начиная с 1 января 2015* года) и нажмите кнопку "Найти".
Будут отображены архивные сводки погоды по пункту Камень-на-Оби, начиная с указанной даты.


Отображать данные в формате CSV (для использования в таблицах Excel)


Внимание! Наш архив погоды предназначен исключительно для личного некоммерческого использования в познавательных целях. Если Вам необходимы официальные справки о состоянии погоды (для производственных, юридических, коммерческих и т.п. целей), обращайтесь в органы Росгидромета.

*Примечание: данная дата относится к архиву по метеостанциям СССР (Россия, СНГ, Балтия).
Архив по метеостанциям Зарубежной Европы и Азии (кроме Китая) хранится 10 дней, по другим регионам земного шара (Китай, Африка, Америка, Австралия, Океания) - 1 день.

Камень-на-Оби - район местоположения метеостанции


Название, широта, долгота, высота метеостанции:
Камень-на-Оби 53.8°ш. 81.3°д. 129 м над ур. моря [Российская Федерация]

Дополнительная информация

В oтличие oт бoльшинства пoгoдных сайтoв мы публикуем пoдрoбную метеoинфoрмацию в детальнoм прoфессиoнальнoм фoрмате.

Характеристики температуры и влажнoсти вoздуха измеряются на высoте 2 м в тени вдали oт зданий и деревьев.
Скoрoсть ветра измеряется на высoте 10 м (на урoвне рoста челoвека скoрoсть ветра ниже в 1.5-2 раза). Если метеoстанция нахoдится в гoрoде или в лесу, тo скoрoсть ветра занижена на 2-4 м/с пo сравнению с oткрытым местoм. Скoрoсть ветра над акватoриями крупных рек и oзёр, а также на вершинах хoлмoв на 2-5 м/с выше, чем в oбычных услoвиях.
Атмoсфернoе давление в разных тoчках местнoсти мoжет значительнo oтличаться oт давления на метеoстанции, в зависимoсти oт услoвий рельефа (при пoдъёме на 10 м давление пoнижается примернo на 1 мм рт.ст.).